Current weather by "City, St" or "zip code"  
 

Current Conditions: Klamath Falls International Airport, OR

Overcast


54.0 F

Last Updated on Oct 24 2020, 9:53 am PDT
Humidity: 62%
Wind Speed: W 10.4 mph
Barometer 30.03 in
Dewpoint: 41.0 F
Visibility: 10.00 mi
Precip: --
Heat Index: NA
Wind Chill: 51 F
Current conditions at:

Klamath Falls International Airport, OR (KLMT)

Lat: 42.14703 Lon: 121.72548

Local Radar Image active severe weather and emergency alerts image image weather storm and storm spotter reports image weather observation monitoring service image
Local
Radar
Active
Alerts
Storm Reports Obs
Monitoring

Sign-up For Email & Text Message Weather Alert Notification Services



Advertise Here

Observation History for Klamath Falls International Airport, OR


Time Wind
(mph)
Vis
(mi)
Weather Precip (in) Temperature (F) Relative
Humidity
Wind
Chill
(F)
Heat
Index
(F)
Pressure
Air Dwpt altimeter
(in)
sea level
(mb)
Rmks
9:53 am PDT W 10.4 10.00 Overcast -- 54.0 41.0 62% 51 NA 30.03 1015.6
8:53 am PDT SW 10.4 10.00 Overcast -- 51.0 42.1 71% 47 NA 30.02 1015.4
7:53 am PDT SW 8.1 10.00 Mostly Cloudy -- 49.0 41.0 74% 46 NA 30.01 1014.6
6:53 am PDT SE 3.5 10.00 Overcast -- 47.0 39.0 74% NA NA 30.02 1015.2
5:53 am PDT W 6.9 10.00 Overcast -- 48.0 37.9 68% 45 NA 30.02 1014.6
4:53 am PDT W 8.1 10.00 Overcast -- 49.0 37.9 66% 46 NA 30.03 1014.5
3:53 am PDT N 0.0 10.00 Mostly Cloudy -- 46.0 35.1 66% NA NA 30.04 1015.2
2:53 am PDT W 9.2 10.00 Partly Cloudy -- 48.0 35.1 61% 44 NA 30.05 1015.5
1:53 am PDT S 6.9 10.00 Partly Cloudy -- 48.0 32.0 54% 45 NA 30.05 1016.0
12:53 am PDT S 3.5 10.00 Fair -- 43.0 28.9 58% NA NA 30.06 1016.8
11:53 pm PDT NW 8.1 10.00 Fair -- 49.0 30.0 48% 46 NA 30.07 1016.9
10:53 pm PDT NW 4.6 10.00 Fair -- 45.0 28.9 54% 43 NA 30.07 1017.7
9:53 pm PDT N 0.0 10.00 Fair -- 42.0 24.1 49% NA NA 30.07 1017.9
8:53 pm PDT E 4.6 10.00 Fair -- 45.0 23.0 42% 43 NA 30.06 1018.0
7:53 pm PDT W 10.4 10.00 Fair -- 50.0 26.1 39% 46 NA 30.05 1018.3
6:53 pm PDT W 6.9 10.00 Fair -- 51.0 24.1 35% 48 NA 30.04 1017.7
5:53 pm PDT S 3.5 10.00 Fair -- 57.0 19.9 24% NA NA 30.04 1016.7
4:53 pm PDT S 3.5 10.00 Fair -- 60.0 19.0 20% NA NA 30.04 1016.3
3:53 pm PDT 3.5 10.00 Fair -- 60.0 18.0 19% NA NA 30.06 1017.0
2:53 pm PDT SW 3.5 10.00 Fair -- 57.0 17.1 21% NA NA 30.08 1017.7
1:53 pm PDT 4.6 9.00 Fair -- 54.0 19.9 26% 53 NA 30.09 1018.3
12:53 pm PDT N 0.0 10.00 Fair -- 52.0 16.0 24% NA NA 30.12 1019.6
11:53 am PDT N 0.0 10.00 Fair -- 48.0 15.1 27% NA NA 30.15 1020.9
10:53 am PDT N 0.0 10.00 Fair -- 45.0 18.0 34% NA NA 30.16 1021.5

Regional Weather Observation


Rogue Valley International Airport, OR (KMFR)

Overcast
55.0 F

Montague Siskiyou County Airport, CA (KSIY)

Fair
49.0 F

Mount Shasta, CA (KMHS)

Fair
55.0 F

Lake County Airport, OR (KLKV)

Overcast
49.0 F

Sexton Summit, OR (KSXT)

Fog
43.0 F

Alturas, CA (KAAT)

Overcast
44.0 F